Terminal Aerodrome Forecast
Issued by NWS

Home | Current Version | Previous Version | Text Only | Print | Product List | Glossary On
Versions: 1 2 3 4 5 6 7 8 9 10 11 12 13 14 15 16 17 18 19 20 21 22 23 24 25 26 27 28 29 30 31 32 33 34 35 36 37
000
FTUS45 KBOU 210854 AAA
TAFBJC
TAF AMD
KBJC 210854Z 2109/2206 34006KT P6SM OVC070
     FM211400 VRB04KT P6SM SCT035 OVC050 PROB30 2118/2122 -SHRA
      BKN035
     FM212200 12008KT P6SM BKN035 OVC050
      TEMPO 2122/2202 4SM -RA BR BKN025
     FM220200 14006KT P6SM SCT035 OVC050 PROB30 2202/2206 -RA
      BKN035=

USA.gov is the U.S. government's official web portal to all federal, state and local government web resources and services.